Regional Weather Roundup
Issued by NWS Cleveland, OH

Home | Current Version | Previous Version | Graphics & Text | Print | Product List | Glossary On
Versions: 1 2 3 4 5 6 7 8 9 10 11 12 13 14 15 16 17 18 19 20 21 22 23 24 25 26 27 28 29 30 31 32 33 34 35 36 37 38 39 40 41 42 43 44 45 46 47 48 49 50
000
ASUS41 KCLE 031410
RWRCLE
OHIO REGIONAL WEATHER ROUNDUP
NATIONAL WEATHER SERVICE CLEVELAND, OH
1000 AM EDT MON AUG 03 2015

NOTE: "FAIR" INDICATES FEW OR NO CLOUDS BELOW 12,000 FEET WITH NO
SIGNIFICANT WEATHER AND/OR OBSTRUCTIONS TO VISIBILITY.

OHZ001>008-015>018-024>027-034-035-043-044-031500-
   NORTHWEST OHIO

CITY           SKY/WX    TMP DP  RH WIND       PRES   REMARKS
DEFIANCE       CLOUDY    69  63  81 SW9       29.82S
FINDLAY        SUNNY     72  63  73 SW13      29.81R
TOLEDO EXPRESS PTSUNNY   68  63  84 W13       29.80S
TOLEDO EXEC    PTSUNNY   70  62  76 W17       29.80F
LIMA           CLOUDY    70  63  78 SW12      29.83R
$$

OHZ009>014-019>023-028>033-038-089-031500-
   NORTHEAST OHIO

CITY           SKY/WX    TMP DP  RH WIND       PRES   REMARKS
CLE-HOPKINS    PTSUNNY   73  61  65 SW14      29.81S
CLE-LAKEFRONT  PTSUNNY   73  60  63 SW17      29.78S
CUY CO. ARPT   PTSUNNY   75  61  60 SW14      29.80R
LORAIN-ELYRIA  PTSUNNY   72  61  68 W13G23    29.81R
ASHTABULA      MOSUNNY   72  61  68 W10       29.80S
AKRON-CANTON   PTSUNNY   71  58  63 W10       29.82S
WOOSTER        MOSUNNY   72  60  66 W13G18    29.82F
MANSFIELD      PTSUNNY   72  60  66 SW15G21   29.82F
YOUNGSTOWN     PTSUNNY   70  59  68 SW14      29.81S
$$

OHZ042-051>053-060>062-070>072-077>081-031500-
  SOUTHWEST OHIO

CITY           SKY/WX    TMP DP  RH WIND       PRES   REMARKS
CINC-COVINGTON MOSUNNY   70  64  81 S10       29.90S
CINC-LUNKEN    SUNNY     70  64  81 S8        29.89F
HAMILTON       CLOUDY    68  64  87 S5        29.90R
DAYTON         PTSUNNY   68  64  87 SW14      29.87S
WRIGHT-PAT AFB PTSUNNY   70  64  82 S10       29.86S
DAYTON GENERAL NOT AVBL
WILMINGTON     MOSUNNY   69  62  78 S10       29.88R
$$

OHZ036-037-039>041-045>050-054>059-063>069-073>076-082>088-031500-
  CENTRAL AND SOUTHEAST OHIO

CITY           SKY/WX    TMP DP  RH WIND       PRES   REMARKS
COLUMBUS       PTSUNNY   70  62  76 S8        29.83F
OSU AIRPORT    MOSUNNY   72  62  71 SW12      29.83F
BOLTON FIELD   MOSUNNY   70  63  78 SW12      29.85S
RICKENBACK AFB PTSUNNY   69  62  78 SW13      29.83S
NEWARK         CLOUDY    72  60  66 SW6       29.82F
MARION         PTSUNNY   70  61  73 SW13G24   29.83R
LANCASTER      PTSUNNY   71  61  70 VRB6      29.84S
ZANESVILLE     CLOUDY    71  57  61 VRB6      29.83F
NEW PHILLY     PTSUNNY   70  60  70 VRB7      29.82F
$$



USA.gov is the U.S. government's official web portal to all federal, state and local government web resources and services.